This demonstration page uses our WeatherBlox Daily Observations layout. Learn more.

Left ArrowRight Arrow

40.92945, -100.16068

Hourly Observations for January 1, 2021

Temp ( °F °C ) Dew Point ( °F °C ) Humidity (%) Winds ( mph kmh ) Pressure ( in mb ) Visibility ( mi km ) Precip ( " mm )
12:15 am 00:15 Clear 10 -12.5 7 -14 89 89 W 3 6 30.3 1026 10 16.0934 0 0
12:35 am 00:35 Clear 9 -13 6 -14.6 88 88 W 3 6 30.29 1026 10 16.0934 0 0
12:55 am 00:55 Clear 8 -13.4 5 -15.2 86 86 WNW 5 7 30.3 1026 10 16.0934 0 0
1:15 am 01:15 Clear 9 -12.6 6 -14.2 88 88 WNW 9 15 30.29 1026 10 16.0934 0 0
1:35 am 01:35 Clear 11 -11.8 8 -13.5 87 87 WNW 6 9 30.28 1025 10 16.0934 0 0
1:55 am 01:55 Clear 9 -12.6 6 -14.2 88 88 Calm 30.29 1026 10 16.0934 0 0
2:15 am 02:15 Clear 9 -12.6 7 -14.1 89 89 Calm 30.29 1026 10 16.0934 0 0
2:35 am 02:35 Clear 9 -12.9 6 -14.6 87 87 NNW 5 7 30.3 1026 10 16.0934 0 0
2:55 am 02:55 Clear 7 -13.7 4 -15.5 86 86 NW 3 6 30.3 1026 10 16.0934 0 0
3:15 am 03:15 Clear 7 -14.1 3 -16.1 85 85 W 3 6 30.31 1026 10 16.0934 0 0
3:35 am 03:35 Clear 6 -14.4 3 -16.3 86 86 NW 5 7 30.31 1026 10 16.0934 0 0
3:55 am 03:55 Clear 7 -14 4 -15.8 86 86 Calm 30.3 1026 10 16.0934 0 0
4:15 am 04:15 Clear 7 -13.7 4 -15.5 86 86 WNW 8 13 30.29 1026 10 16.0934 0 0
4:35 am 04:35 Clear 7 -14 3 -15.9 86 86 NW 7 11 30.29 1026 10 16.0934 0 0
4:55 am 04:55 Clear 8 -13.3 5 -15.1 86 86 WNW 3 6 30.28 1025 10 16.0934 0 0
5:15 am 05:15 Clear 8 -13.4 5 -15.1 87 87 NW 7 11 30.29 1026 10 16.0934 0 0
5:35 am 05:35 Clear 8 -13.1 5 -14.8 87 87 NW 6 9 30.27 1025 10 16.0934 0 0
5:55 am 05:55 Clear 10 -12.2 7 -13.8 88 88 NW 7 11 30.25 1025 10 16.0934 0 0
6:15 am 06:15 Clear 12 -11.2 9 -13 87 87 WNW 6 9 30.24 1024 10 16.0934 0 0
6:35 am 06:35 Clear 11 -11.5 8 -13.1 88 88 WNW 9 15 30.25 1024 10 16.0934 0 0
6:55 am 06:55 Clear 12 -11.3 9 -13 87 87 WNW 8 13 30.24 1024 10 16.0934 0 0
7:15 am 07:15 Clear 13 -10.5 10 -12.2 87 87 WNW 9 15 30.24 1024 10 16.0934 0 0
7:35 am 07:35 Clear 13 -10.5 10 -12.1 88 88 WNW 8 13 30.24 1024 10 16.0934 0 0
7:55 am 07:55 Clear 14 -10 11 -11.5 89 89 WNW 9 15 30.23 1024 10 16.0934 0 0
8:15 am 08:15 Sunny 14 -10.1 11 -11.7 88 88 WNW 9 15 30.23 1024 10 16.0934 0 0
8:35 am 08:35 Sunny 14 -10 11 -11.6 88 88 WNW 9 15 30.23 1024 10 16.0934 0 0
8:55 am 08:55 Sunny 15 -9.6 12 -11.3 88 88 W 8 13 30.24 1024 10 16.0934 0 0
9:15 am 09:15 Sunny 14 -9.8 11 -11.5 88 88 W 9 15 30.25 1024 10 16.0934 0 0
9:35 am 09:35 Sunny 17 -8.5 14 -10.1 88 88 W 9 15 30.24 1024 10 16.0934 0 0
9:55 am 09:55 Sunny 19 -7.1 16 -9.1 86 86 W 8 13 30.23 1024 10 16.0934 0 0
10:15 am 10:15 Sunny 22 -5.3 18 -8 82 82 W 9 15 30.22 1023 10 16.0934 0 0
10:35 am 10:35 Sunny 24 -4.2 19 -7.2 80 80 WNW 8 13 30.22 1023 10 16.0934 0 0
10:55 am 10:55 Sunny 26 -3.2 20 -6.6 78 78 WNW 8 13 30.22 1023 10 16.0934 0 0
11:15 am 11:15 Sunny 28 -2.1 21 -5.9 76 76 WNW 9 15 30.21 1023 10 16.0934 0 0
11:35 am 11:35 Sunny 30 -1.1 23 -5.1 75 75 WNW 10 17 30.19 1022 10 16.0934 0 0
11:55 am 11:55 Sunny 31 -0.5 24 -4.7 74 74 WNW 10 17 30.18 1022 10 16.0934 0 0
12:15 pm 12:15 Sunny 32 0 25 -4 75 75 WNW 9 15 30.17 1022 10 16.0934 0 0
12:35 pm 12:35 Sunny 34 1 26 -3.5 72 72 WNW 10 17 30.15 1021 10 16.0934 0 0
12:55 pm 12:55 Sunny 35 1.6 26 -3.2 71 71 WNW 10 17 30.14 1021 10 16.0934 0 0
1:15 pm 13:15 Sunny 36 2.2 28 -2.5 71 71 WNW 8 13 30.14 1020 10 16.0934 0 0
1:35 pm 13:35 Sunny 37 2.5 28 -2.2 71 71 WNW 8 13 30.12 1020 10 16.0934 0 0
1:55 pm 13:55 Sunny 37 2.8 28 -2.1 70 70 NW 7 11 30.12 1020 10 16.0934 0 0
2:15 pm 14:15 Sunny 38 3.4 29 -1.8 69 69 WNW 6 9 30.11 1020 10 16.0934 0 0
2:35 pm 14:35 Sunny 38 3.2 30 -1.2 73 73 WNW 5 7 30.13 1020 10 16.0934 0 0
2:55 pm 14:55 Sunny 38 3.2 29 -1.4 72 72 WNW 6 9 30.14 1021 10 16.0934 0 0
3:15 pm 15:15 Sunny 38 3.3 30 -1.3 72 72 WNW 6 9 30.13 1020 10 16.0934 0 0
3:35 pm 15:35 Sunny 38 3.1 29 -1.5 72 72 WNW 9 15 30.15 1021 10 16.0934 0 0
3:55 pm 15:55 Sunny 37 2.8 30 -1.3 75 75 WNW 9 15 30.15 1021 10 16.0934 0 0
4:15 pm 16:15 Sunny 37 2.5 30 -1.3 76 76 NW 9 15 30.16 1021 10 16.0934 0 0
4:35 pm 16:35 Sunny 36 2.3 29 -1.4 77 77 NW 8 13 30.16 1021 10 16.0934 0 0
4:55 pm 16:55 Sunny 35 1.5 29 -1.6 80 80 WNW 7 11 30.17 1022 10 16.0934 0 0
5:15 pm 17:15 Sunny 33 0.7 28 -2 82 82 WNW 8 13 30.19 1022 10 16.0934 0 0
5:35 pm 17:35 Clear 32 0 28 -2.5 83 83 WNW 7 11 30.2 1023 10 16.0934 0 0
5:55 pm 17:55 Clear 31 -0.8 27 -3 85 85 WNW 8 13 30.21 1023 10 16.0934 0 0
6:15 pm 18:15 Clear 29 -1.4 26 -3.5 86 86 WNW 9 15 30.21 1023 10 16.0934 0 0
6:35 pm 18:35 Clear 28 -2 25 -4 86 86 WNW 10 17 30.22 1023 10 16.0934 0 0
6:55 pm 18:55 Clear 28 -2 25 -4 86 86 WNW 10 17 30.22 1023 10 16.0934 0 0
7:15 pm 19:15 Clear 28 -2.2 25 -4.1 87 87 WNW 9 15 30.22 1023 10 16.0934 0 0
7:35 pm 19:35 Clear 27 -2.9 24 -4.5 89 89 WNW 7 11 30.23 1024 10 16.0934 0 0
7:55 pm 19:55 Clear 25 -4 22 -5.4 90 90 WNW 8 13 30.24 1024 10 16.0934 0 0
8:15 pm 20:15 Clear 23 -5.1 20 -6.5 90 90 WNW 7 11 30.25 1024 10 16.0934 0 0
8:35 pm 20:35 Clear 25 -3.7 24 -4.7 93 93 WNW 9 15 30.23 1024 10 16.0934 0 0
8:55 pm 20:55 Clear 27 -2.7 24 -4.4 88 88 WNW 9 15 30.22 1024 10 16.0934 0 0
9:15 pm 21:15 Clear 25 -3.7 22 -5.3 89 89 W 8 13 30.23 1024 10 16.0934 0 0
9:35 pm 21:35 Clear 24 -4.6 22 -5.7 92 92 WNW 9 15 30.24 1024 10 16.0934 0 0
9:55 pm 21:55 Clear 22 -5.3 20 -6.4 92 92 WNW 10 17 30.24 1024 10 16.0934 0 0
10:15 pm 22:15 Clear 23 -4.9 21 -6.1 91 91 WNW 10 17 30.24 1024 10 16.0934 0 0
10:35 pm 22:35 Clear 24 -4.7 21 -5.9 91 91 WNW 9 15 30.25 1024 10 16.0934 0 0
10:55 pm 22:55 Clear 22 -5.7 20 -6.8 92 92 WNW 10 17 30.26 1025 10 16.0934 0 0
11:15 pm 23:15 Clear 21 -6 20 -6.9 93 93 WNW 9 15 30.26 1025 10 16.0934 0 0
11:35 pm 23:35 Clear 22 -5.5 20 -6.5 93 93 WNW 10 17 30.25 1024 10 16.0934 0 0
11:55 pm 23:55 Clear 22 -5.5 20 -6.5 93 93 WNW 10 17 30.25 1024 10 16.0934 0 0

Powered by AerisWeather